If you wish to contribute or participate in the discussions about articles you are invited to join SKYbrary as a registered user

 Actions

Santa Genoveva Airport

From SKYbrary Wiki

SBGO
Airport
ICAO: SBGO – IATA: GYN
Summary
Name Santa Genoveva Airport
Region South America and Caribbean
Territory Brazil BR.gif
Location Santa Genoveva, Goias
Serving Goiânia
Elevation 746.76 m
2,450 ft746.76 m
Coordinates 16° 37' 46.99" S, 49° 13' 36.01" W
Runways
Designator Length Width Surface ROPS
14/32 2500 m8,202.1 ft
45 m147.638 ft
ASP yes/yes


METAR
Observation SBGO 262020Z 36005KT 9999 VCSH VCTS FEW030 FEW040CB BKN100 25/22 Q1013 RETS
Station Goiania Aeroporto
Date/Time 26 February 2020 20:20:00
Wind direction 360°
Wind speed 05 kts
Lowest cloud amount few clouds
Temperature 25°C
Dew point 22°C
Humidity 83%
QNH 1013 hPa
Weather condition in vicinity: showers thunderstorm

Santa Genoveva/Goiânia Airport is the airport serving Goiânia, Brazil.

Climatology

Tropical savanna climate (Köppen climate classification Aw)

Maps

Terrain

Loading map...

Airport Layout

Loading map...


Accidents & Serious Incidents at or in vicinity of SBGO

None on SKYbrary